Hourly Data Report for March 11, 2010

HALIFAX STANFIELD INT'L A
NOVA SCOTIA

44°52'48.060" N
63°30'00.050" W
145.40 m
8202250
71395
YHZ

Download Data

Hourly Data (March 2010)
Hourly Data Report for March 11, 2010
TIME
LST
Temp Definition
°C
Dew Point Definition
°C
Rel Hum Definition
%
Precip. Amount Definition
mm

Wind Dir Definition
10's deg

Wind Spd Definition
km/h
Visibility Definition
km
Stn Press Definition
kPa
Hmdx Definition


Wind Chill Definition


Weather Definition


00:00 -2.2 -7.4 67   26 9 24.1 99.93   -6 Clear
01:00 -2.4 -6.0 76   27 9 24.1 100.00   -6 Clear
02:00 -3.1 -5.8 82   26 7 24.1 100.06   -6 Clear
03:00 -3.8 -6.2 83   29 9 24.1 100.07   -8 Clear
04:00 -4.3 -6.8 83   30 13 24.1 100.10   -9 Clear
05:00 -4.0 -7.1 79   33 15 24.1 100.15   -9 Clear
06:00 -5.0 -7.6 82   33 11 24.1 100.21   -10 Mainly Clear
07:00 -4.6 -7.7 79   33 9 24.1 100.27   -8 Mainly Clear
08:00 -3.7 -7.5 75   32 11 24.1 100.35   -8 Mainly Clear
09:00 -2.2 -7.4 67   35 13 24.1 100.39   -7 Mainly Clear
10:00 -0.7 -8.1 57   35 11 24.1 100.39   -4 Mainly Clear
11:00 1.6 -8.3 48   34 11 24.1 100.39     Mainly Clear
12:00 2.2 -8.8 44   26 7 24.1 100.36     Mainly Clear
13:00 3.9 -9.6 37   30 6 24.1 100.32     Mainly Clear
14:00 4.4 -10.2 34   28 6 24.1 100.29     Mainly Clear
15:00 4.4 -10.4 33   29 6 24.1 100.27     Mainly Clear
16:00 4.5 -10.2 33   28 15 24.1 100.28     Mainly Clear
17:00 3.7 -11.3 32   28 9 24.1 100.29     Mainly Clear
18:00 1.7 -10.8 39   29 11 24.1 100.34     Mainly Clear
19:00 -0.9 -10.3 49   25 7 24.1 100.38   -3 Mainly Clear
20:00 -1.8 -7.0 68   26 6 24.1 100.45   -4 Mainly Clear
21:00 -2.5 -6.8 72   25 7 24.1 100.45   -5 Mostly Cloudy
22:00 -2.7 -6.7 74   26 11 24.1 100.47   -7 Mostly Cloudy
23:00 -2.7 -7.1 72   33 4 24.1 100.46   -4 Mainly Clear

Notes on Data Quality.

Legend

  • E = Estimated
  • M = Missing
  • NA = Not Available*
  • [empty] = Indicates an unobserved value
Date modified: